Location: Franzen
(48.6167°N, 15.3833°E)
Time: 02:53:49
(UTC+00:00)

Transit 2A - Pass Details

Date: 07 August 2021
Orbit: 594 x 964 km, 66.7° (Epoch: 27 September)

Event Time Altitude Azimuth Distance (km) Brightness Sun altitude
Rises 13:56:33 0° 311° (NW) 3,321 9.5 42.3°
Reaches altitude 10° 13:59:47 10° 291° (WNW) 2,459 9.2 41.9°
Maximum altitude 14:03:12 16° 254° (WSW) 2,101 9.7 41.4°
Drops below altitude 10° 14:06:46 10° 217° (SW) 2,583 9.7 40.8°
Sets 14:10:18 0° 198° (SSW) 3,572 9.9 40.3°
